Regional Weather Roundup
Issued by NWS

Home | Current Version | Previous Version | Graphics & Text | Print | Product List | Glossary On
Versions: 1 2 3 4 5 6 7 8 9 10 11 12 13 14 15 16 17 18 19 20 21 22 23 24 25 26 27 28 29 30 31 32 33 34 35 36 37 38 39 40 41 42 43 44 45 46 47 48 49 50
000
ASUS43 KLSX 241007
RWRMO

WEATHER SUMMARY FOR MISSOURI
NATIONAL WEATHER SERVICE SPRINGFIELD MO
500 AM CDT SUN MAY 24 2015

NOTE: "FAIR" INDICATES FEW OR NO CLOUDS BELOW 12,000 FEET WITH NO
       SIGNIFICANT WEATHER AND/OR OBSTRUCTIONS TO VISIBILITY.
       CURRENT SKY AND/OR WEATHER CONDITIONS ARE NOT AVAILABLE FOR
       CHILLICOTHE AND FARMINGTON.

MOZ001>031-035>038-043-044-053-054-241100-
...NORTHERN AND WESTERN MISSOURI...

CITY           SKY/WX    TMP DP  RH WIND       PRES   REMARKS
KANSAS CTY INT LGT RAIN  61  60  97 SE10      29.88S FOG
KANSAS C DTWN  CLOUDY    64  60  87 SE9       29.86F
LEE`S SUMMIT   LGT RAIN  63  61  93 S13G20    29.88F
ST JOSEPH      LGT RAIN  62  60  93 SE10      29.88F
CHILLICOTHE      N/A     61  32  33 SE8G23    29.95F
KIRKSVILLE     RAIN      60  59  96 E9        30.03F FOG

$$
MOZ066>068-077>081-088>096-101>105-241100-
...SOUTHWEST MISSOURI...

CITY           SKY/WX    TMP DP  RH WIND       PRES   REMARKS
SPRINGFIELD    CLOUDY    67  59  75 SE16      29.96S
JOPLIN         LGT RAIN  65  63  93 S14       29.92R

$$
MOZ032>034-039>042-045>050-055>058-069>072-241100-
...CENTRAL MISSOURI...

CITY           SKY/WX    TMP DP  RH WIND       PRES   REMARKS
COLUMBIA       LGT RAIN  62  56  80 E9        30.01F
JEFFERSON CITY CLOUDY    67  54  63 E10       30.00F
ROLLA          CLOUDY    62  55  77 E9        30.01F
SEDALIA        LGT RAIN  61  57  87 VRB7      29.99F
WHITEMAN AFB   LGT RAIN  61  59  94 SE12G20   29.93F
WARRENSBURG    LGT RAIN  61  59  94 SE13G21   29.91F
OSAGE BEACH    CLOUDY    66  54  63 SE6       29.98F

$$
MOZ051-052-059>065-241100-
...EAST CENTRAL MISSOURI...

CITY           SKY/WX    TMP DP  RH WIND       PRES   REMARKS
ST LOUIS INTL  CLOUDY    66  54  65 E7        30.10S
SPIRIT OF STL  CLOUDY    65  55  70 E7        30.07F
ST CHARLES     CLOUDY    64  55  72 E10       30.08F

$$
MOZ072>076-082>087-097>100-106>115-241100-
...SOUTH CENTRAL AND SOUTHEAST MISSOURI...

CITY           SKY/WX    TMP DP  RH WIND       PRES   REMARKS
CAPE GIRARDEAU CLOUDY    66  59  78 SE10      30.11S
FARMINGTON     MOCLDY    63  55  77 S5        30.13S
POPLAR BLUFF   MOCLDY    68  59  73 SE8       30.08S
WEST PLAINS    PTCLDY    64  55  72 SE7       30.06F

$$


USA.gov is the U.S. government's official web portal to all federal, state and local government web resources and services.